Simultaneous Nadir Overpasses (SNOs) Predictions

Prediction of SNOs between AQUA and NOAA-19 Satellite Orbit:

Table of predicted SNOs for the next 14.0 days since TLE Epoch: 8/14/2015
Index Date (AQUA) Time (AQUA) Lat,Lon (AQUA) SZA (AQUA ) Date (NOAA-19) Time (NOAA-19) Lat,Lon (NOAA-19) SZA (NOAA-19 ) Distance(km) Time Diff (sec)
1 08/16/2015 03:11:48 80.27, 99.24 68.10 08/16/2015 03:11:59 80.28, 99.19 68.11 1.17 11
2 08/18/2015 07:56:07 80.35, 27.48 68.92 08/18/2015 07:55:20 80.34, 27.46 68.93 0.63 47
3 08/18/2015 08:45:31 -80.26,-164.08 111.23 08/18/2015 08:46:23 -80.26,-164.15 111.24 1.34 52
4 08/20/2015 13:29:49 -80.31, 124.45 110.45 08/20/2015 13:29:43 -80.31, 124.44 110.45 0.18 6
5 08/22/2015 18:14:07 -80.35, 52.92 109.65 08/22/2015 18:13:03 -80.35, 52.99 109.63 1.22 64
6 08/22/2015 19:03:31 80.28,-138.74 70.24 08/22/2015 19:03:56 80.28,-138.76 70.23 0.58 25
7 08/24/2015 23:47:49 80.34, 149.66 71.06 08/24/2015 23:47:16 80.33, 149.79 71.06 2.55 33
8 08/25/2015 00:37:14 -80.28, -42.13 109.04 08/25/2015 00:38:20 -80.28, -42.21 109.05 1.37 66




NCC Satellite Simultaneous Nadir Overpasses (SNOs) Prediction Service
